| time (UTC) | temp F | wind direction | speed knots | gust knots | rain 1hr in | rain 24hr in | rain mn in | humidity % | barometer mb |
| 20260504024419 | 66 | 256 | 2.6 | 7.0 | 0.00 | 0.00 | 0.00 | 69 | 1011.0 |
| 20260504023959 | 66 | 200 | 3.5 | 8.7 | 0.00 | 0.00 | 0.00 | 69 | 1010.9 |
| 20260504023545 | 66 | 253 | 5.2 | 7.8 | 0.00 | 0.00 | 0.00 | 69 | 1011.0 |
| 20260504023135 | 66 | 347 | 3.5 | 4.3 | 0.00 | 0.00 | 0.00 | 69 | 1011.1 |
| 20260504022719 | 66 | 305 | 1.7 | 5.2 | 0.00 | 0.00 | 0.00 | 69 | 1011.0 |
| 20260504022305 | 66 | 324 | 1.7 | 4.3 | 0.00 | 0.00 | 0.00 | 69 | 1011.0 |
| 20260504021819 | 66 | 284 | 2.6 | 5.2 | 0.00 | 0.00 | 0.00 | 70 | 1011.1 |
| 20260504021350 | 66 | 226 | 2.6 | 4.3 | 0.00 | 0.00 | 0.00 | 70 | 1011.1 |
| 20260504020930 | 66 | 282 | 7.0 | 7.8 | 0.00 | 0.00 | 0.00 | 69 | 1011.3 |
| 20260504020430 | 66 | 199 | 1.7 | 5.2 | 0.00 | 0.00 | 0.00 | 70 | 1011.1 |
| 20260504020015 | 66 | 58 | 2.6 | 5.2 | 0.00 | 0.00 | 0.00 | 70 | 1011.1 |
| 20260504015545 | 66 | 189 | 3.5 | 5.2 | 0.00 | 0.00 | 0.00 | 70 | 1011.2 |
| 20260504015119 | 66 | 219 | 5.2 | 9.6 | 0.00 | 0.00 | 0.00 | 69 | 1011.0 |
| 20260504014645 | 66 | 195 | 2.6 | 4.3 | 0.00 | 0.00 | 0.00 | 70 | 1011.3 |
| 20260504014149 | 66 | 200 | 0.9 | 3.5 | 0.00 | 0.00 | 0.00 | 70 | 1011.1 |
| 20260504013711 | 66 | 275 | 4.3 | 7.0 | 0.00 | 0.00 | 0.00 | 69 | 1011.1 |
| 20260504013215 | 66 | 336 | 4.3 | 7.0 | 0.00 | 0.00 | 0.00 | 70 | 1011.3 |
| 20260504012715 | 66 | 304 | 3.5 | 5.2 | 0.00 | 0.00 | 0.00 | 70 | 1011.4 |
| 20260504012250 | 66 | 295 | 3.5 | 9.6 | 0.00 | 0.00 | 0.00 | 70 | 1011.3 |
| 20260504011814 | 65 | 313 | 2.6 | 5.2 | 0.00 | 0.00 | 0.00 | 71 | 1011.1 |
| 20260504011409 | 65 | 11 | 1.7 | 2.6 | 0.00 | 0.00 | 0.00 | 73 | 1011.2 |
| 20260504011010 | 65 | 99 | 0.0 | 0.0 | 0.00 | 0.00 | 0.00 | 75 | 1011.3 |
| 20260504010559 | 65 | 85 | 0.0 | 1.7 | 0.00 | 0.00 | 0.00 | 75 | 1011.3 |
| 20260504010140 | 65 | 107 | 1.7 | 2.6 | 0.00 | 0.00 | 0.00 | 75 | 1011.3 |
| 20260504010023 | 65 | 108 | 1.7 | 2.6 | 0.00 | 0.00 | 0.00 | 77 | 1011.3 |
| 20260504005610 | 65 | 93 | 0.9 | 1.7 | 0.00 | 0.00 | 0.00 | 78 | 1011.3 |
| 20260504005208 | 65 | 72 | 0.0 | 0.0 | 0.00 | 0.00 | 0.00 | 78 | 1011.4 |
| 20260504004713 | 65 | 97 | 0.0 | 0.9 | 0.00 | 0.00 | 0.00 | 76 | 1011.6 |
| 20260504004238 | 65 | 105 | 1.7 | 2.6 | 0.00 | 0.00 | 0.00 | 78 | 1011.3 |
| 20260504003748 | 65 | 109 | 0.0 | 0.9 | 0.00 | 0.00 | 0.00 | 75 | 1011.4 |
| 20260504003348 | 65 | 100 | 0.0 | 0.0 | 0.00 | 0.00 | 0.00 | 73 | 1011.3 |
| 20260504002938 | 65 | 93 | 0.0 | 0.0 | 0.00 | 0.00 | 0.00 | 73 | 1011.5 |
| 20260504002458 | 65 | 100 | 0.0 | 0.9 | 0.00 | 0.00 | 0.00 | 73 | 1011.6 |
| 20260504002003 | 65 | 144 | 1.7 | 2.6 | 0.00 | 0.00 | 0.00 | 73 | 1011.6 |
| 20260504001552 | 64 | 34 | 1.7 | 2.6 | 0.00 | 0.00 | 0.00 | 75 | 1011.5 |
| 20260504001108 | 64 | 86 | 0.0 | 0.0 | 0.00 | 0.00 | 0.00 | 78 | 1011.5 |
| 20260504000613 | 64 | 112 | 0.0 | 1.7 | 0.00 | 0.00 | 0.00 | 81 | 1011.6 |
| 20260504000130 | 64 | 104 | 0.0 | 0.9 | 0.00 | 0.00 | 0.00 | 83 | 1011.7 |
| 20260503235708 | 64 | 55 | 1.7 | 2.6 | 0.00 | 0.00 | 0.00 | 85 | 1011.8 |
| 20260503235258 | 64 | 94 | 0.0 | 0.9 | 0.00 | 0.00 | 0.00 | 85 | 1011.8 |
| 20260503234832 | 64 | 99 | 0.0 | 0.0 | 0.00 | 0.00 | 0.00 | 85 | 1011.9 |
| 20260503234423 | 64 | 97 | 0.0 | 0.0 | 0.00 | 0.00 | 0.00 | 85 | 1011.7 |
| 20260503234018 | 64 | 107 | 0.0 | 0.0 | 0.00 | 0.00 | 0.00 | 85 | 1011.8 |
| 20260503233520 | 64 | 97 | 0.0 | 0.9 | 0.00 | 0.00 | 0.00 | 85 | 1011.7 |
| 20260503233118 | 64 | 95 | 0.0 | 0.9 | 0.00 | 0.00 | 0.00 | 86 | 1011.8 |
| 20260503232713 | 65 | 86 | 0.0 | 0.9 | 0.00 | 0.00 | 0.00 | 86 | 1012.0 |
| 20260503232257 | 65 | 97 | 0.0 | 0.0 | 0.00 | 0.00 | 0.00 | 86 | 1011.9 |
| 20260503231853 | 64 | 103 | 0.0 | 0.0 | 0.00 | 0.00 | 0.00 | 86 | 1011.9 |
| 20260503231356 | 64 | 99 | 0.0 | 0.0 | 0.00 | 0.00 | 0.00 | 86 | 1011.9 |
| 20260503230858 | 65 | 98 | 0.0 | 0.0 | 0.00 | 0.00 | 0.00 | 86 | 1011.9 |
| 20260503230413 | 65 | 111 | 0.0 | 0.0 | 0.00 | 0.00 | 0.00 | 86 | 1012.1 |
| 20260503225943 | 65 | 84 | 0.0 | 0.0 | 0.00 | 0.00 | 0.00 | 86 | 1012.1 |
| 20260503225533 | 65 | 103 | 0.0 | 0.0 | 0.00 | 0.00 | 0.00 | 86 | 1012.0 |
| 20260503225038 | 65 | 105 | 0.0 | 0.0 | 0.00 | 0.00 | 0.00 | 86 | 1012.1 |
| 20260503224538 | 65 | 106 | 0.0 | 1.7 | 0.00 | 0.00 | 0.00 | 86 | 1012.1 |
| 20260503224123 | 65 | 114 | 0.0 | 2.6 | 0.00 | 0.00 | 0.00 | 86 | 1012.2 |
| 20260503223638 | 65 | 103 | 0.0 | 1.7 | 0.00 | 0.00 | 0.00 | 86 | 1012.1 |
| 20260503223233 | 65 | 140 | 0.0 | 2.6 | 0.00 | 0.00 | 0.00 | 86 | 1012.2 |
| 20260503222753 | 65 | 123 | 1.7 | 2.6 | 0.00 | 0.00 | 0.00 | 86 | 1012.0 |
| 20260503222325 | 65 | 136 | 0.9 | 2.6 | 0.00 | 0.00 | 0.00 | 86 | 1012.1 |
| 20260503221923 | 66 | 155 | 0.0 | 1.7 | 0.00 | 0.00 | 0.00 | 85 | 1012.2 |
| 20260503221438 | 65 | 113 | 0.0 | 0.9 | 0.00 | 0.00 | 0.00 | 86 | 1011.9 |
| 20260503221018 | 65 | 97 | 0.0 | 1.7 | 0.00 | 0.00 | 0.00 | 85 | 1012.1 |
| 20260503220523 | 65 | 136 | 0.9 | 2.6 | 0.00 | 0.00 | 0.00 | 86 | 1011.9 |
| 20260503220113 | 65 | 113 | 0.0 | 0.9 | 0.00 | 0.00 | 0.00 | 86 | 1012.1 |
| 20260503215638 | 65 | 108 | 0.0 | 0.0 | 0.00 | 0.00 | 0.00 | 86 | 1012.0 |
| 20260503215213 | 65 | 126 | 0.9 | 1.7 | 0.00 | 0.00 | 0.00 | 86 | 1012.0 |
| 20260503214728 | 65 | 147 | 1.7 | 2.6 | 0.00 | 0.00 | 0.00 | 85 | 1011.9 |
| 20260503214323 | 66 | 136 | 1.7 | 1.7 | 0.00 | 0.00 | 0.00 | 85 | 1012.1 |
| 20260503213909 | 66 | 71 | 0.0 | 1.7 | 0.00 | 0.00 | 0.00 | 84 | 1012.2 |
| 20260503213503 | 66 | 49 | 0.9 | 1.7 | 0.00 | 0.00 | 0.00 | 84 | 1012.0 |
| 20260503213049 | 65 | 73 | 0.0 | 1.7 | 0.00 | 0.00 | 0.00 | 84 | 1011.8 |
| 20260503212609 | 65 | 93 | 0.0 | 0.9 | 0.00 | 0.00 | 0.00 | 84 | 1012.0 |
| 20260503212114 | 65 | 86 | 0.0 | 2.6 | 0.00 | 0.00 | 0.00 | 85 | 1012.0 |
| 20260503211643 | 65 | 349 | 0.9 | 3.5 | 0.00 | 0.00 | 0.00 | 85 | 1011.8 |
| 20260503211233 | 65 | 44 | 2.6 | 4.3 | 0.00 | 0.00 | 0.00 | 86 | 1011.8 |
| 20260503210828 | 65 | 47 | 2.6 | 4.3 | 0.00 | 0.00 | 0.00 | 86 | 1011.8 |
| 20260503210413 | 65 | 24 | 1.7 | 3.5 | 0.00 | 0.00 | 0.00 | 86 | 1011.9 |
| 20260503205928 | 65 | 359 | 1.7 | 2.6 | 0.00 | 0.00 | 0.00 | 87 | 1011.7 |
| 20260503205436 | 65 | 104 | 0.0 | 0.9 | 0.00 | 0.00 | 0.00 | 87 | 1011.7 |
| 20260503204948 | 65 | 92 | 0.0 | 0.9 | 0.00 | 0.00 | 0.00 | 87 | 1011.9 |
| 20260503204529 | 65 | 83 | 0.0 | 0.9 | 0.00 | 0.00 | 0.00 | 87 | 1011.7 |
| 20260503204039 | 65 | 75 | 0.0 | 0.9 | 0.00 | 0.00 | 0.00 | 87 | 1011.5 |
| 20260503203543 | 65 | 64 | 0.0 | 1.7 | 0.00 | 0.00 | 0.00 | 87 | 1011.5 |
| 20260503203128 | 65 | 69 | 0.9 | 2.6 | 0.00 | 0.00 | 0.00 | 87 | 1011.6 |
| 20260503202653 | 65 | 81 | 0.0 | 2.6 | 0.00 | 0.00 | 0.00 | 87 | 1011.6 |
| 20260503202218 | 65 | 72 | 0.0 | 1.7 | 0.00 | 0.00 | 0.00 | 87 | 1011.4 |
| 20260503201743 | 65 | 24 | 1.7 | 3.5 | 0.00 | 0.00 | 0.00 | 87 | 1011.3 |
| 20260503201253 | 65 | 45 | 1.7 | 2.6 | 0.00 | 0.00 | 0.00 | 87 | 1011.1 |
| 20260503200843 | 65 | 69 | 0.0 | 2.6 | 0.00 | 0.00 | 0.00 | 87 | 1011.1 |
| 20260503200423 | 65 | 32 | 0.0 | 2.6 | 0.00 | 0.00 | 0.00 | 87 | 1011.4 |
| 20260503195953 | 65 | 46 | 0.0 | 0.9 | 0.00 | 0.00 | 0.00 | 87 | 1011.3 |
| 20260503195513 | 65 | 61 | 0.9 | 1.7 | 0.00 | 0.00 | 0.00 | 87 | 1011.2 |
| 20260503195058 | 65 | 81 | 0.0 | 1.7 | 0.00 | 0.00 | 0.00 | 87 | 1011.0 |
| 20260503194633 | 65 | 82 | 0.9 | 2.6 | 0.00 | 0.00 | 0.00 | 87 | 1011.2 |
| 20260503194223 | 66 | 351 | 2.6 | 3.5 | 0.00 | 0.00 | 0.00 | 86 | 1011.1 |
| 20260503193743 | 66 | 56 | 0.9 | 2.6 | 0.00 | 0.00 | 0.00 | 86 | 1010.9 |
| 20260503193333 | 66 | 74 | 0.0 | 1.7 | 0.00 | 0.00 | 0.00 | 86 | 1010.9 |
| 20260503192928 | 66 | 50 | 0.0 | 0.9 | 0.00 | 0.00 | 0.00 | 86 | 1011.0 |
| 20260503192453 | 66 | 73 | 0.9 | 1.7 | 0.00 | 0.00 | 0.00 | 86 | 1010.9 |
| 20260503192053 | 66 | 77 | 0.0 | 0.9 | 0.00 | 0.00 | 0.00 | 85 | 1010.7 |
| 20260503191618 | 66 | 66 | 0.9 | 2.6 | 0.00 | 0.00 | 0.00 | 85 | 1010.6 |
| 20260503191153 | 66 | 79 | 0.9 | 1.7 | 0.00 | 0.00 | 0.00 | 85 | 1010.8 |
| 20260503190658 | 66 | 103 | 0.0 | 3.5 | 0.00 | 0.00 | 0.00 | 85 | 1010.6 |
| 20260503190248 | 66 | 74 | 1.7 | 3.5 | 0.00 | 0.00 | 0.00 | 85 | 1010.7 |
| 20260503185758 | 66 | 106 | 0.0 | 2.6 | 0.00 | 0.00 | 0.00 | 85 | 1010.8 |
| 20260503185304 | 67 | 54 | 2.6 | 4.3 | 0.00 | 0.00 | 0.00 | 84 | 1010.7 |
| 20260503184853 | 67 | 65 | 1.7 | 2.6 | 0.00 | 0.00 | 0.00 | 84 | 1010.7 |
| 20260503184409 | 68 | 49 | 1.7 | 2.6 | 0.00 | 0.00 | 0.00 | 83 | 1010.4 |
| 20260503183923 | 68 | 78 | 0.0 | 1.7 | 0.00 | 0.00 | 0.00 | 82 | 1010.6 |
| 20260503183448 | 68 | 93 | 0.9 | 2.6 | 0.00 | 0.00 | 0.00 | 81 | 1010.4 |
| 20260503183003 | 69 | 46 | 1.7 | 3.5 | 0.00 | 0.00 | 0.00 | 80 | 1010.3 |
| 20260503182510 | 69 | 52 | 0.9 | 1.7 | 0.00 | 0.00 | 0.00 | 78 | 1010.2 |
| 20260503182043 | 70 | 95 | 0.0 | 3.5 | 0.00 | 0.00 | 0.00 | 77 | 1010.1 |
| 20260503181558 | 70 | 107 | 0.0 | 1.7 | 0.00 | 0.00 | 0.00 | 77 | 1010.3 |
| 20260503181133 | 69 | 112 | 0.0 | 3.5 | 0.00 | 0.00 | 0.00 | 77 | 1010.2 |
| 20260503180708 | 69 | 113 | 1.7 | 2.6 | 0.00 | 0.00 | 0.00 | 78 | 1010.2 |
| 20260503180213 | 68 | 108 | 0.9 | 5.2 | 0.00 | 0.00 | 0.00 | 79 | 1010.1 |
| 20260503175733 | 68 | 190 | 4.3 | 7.8 | 0.00 | 0.00 | 0.00 | 79 | 1010.2 |
| 20260503175318 | 68 | 209 | 2.6 | 7.8 | 0.00 | 0.00 | 0.00 | 79 | 1010.3 |
| 20260503174849 | 68 | 215 | 7.8 | 9.6 | 0.00 | 0.00 | 0.00 | 79 | 1010.4 |
| 20260503174442 | 68 | 220 | 5.2 | 9.6 | 0.00 | 0.00 | 0.00 | 78 | 1010.4 |
| 20260503174043 | 68 | 221 | 2.6 | 7.8 | 0.00 | 0.00 | 0.00 | 77 | 1010.3 |
| 20260503173638 | 69 | 166 | 3.5 | 5.2 | 0.00 | 0.00 | 0.00 | 76 | 1010.4 |
| 20260503173238 | 69 | 179 | 3.5 | 5.2 | 0.00 | 0.00 | 0.00 | 76 | 1010.2 |
| 20260503172753 | 69 | 207 | 7.0 | 12.2 | 0.00 | 0.00 | 0.00 | 76 | 1010.3 |
| 20260503172338 | 69 | 218 | 6.1 | 10.4 | 0.00 | 0.00 | 0.00 | 75 | 1010.6 |
| 20260503171908 | 69 | 172 | 3.5 | 7.8 | 0.00 | 0.00 | 0.00 | 75 | 1010.4 |
| 20260503171428 | 69 | 267 | 5.2 | 7.0 | 0.00 | 0.00 | 0.00 | 75 | 1010.4 |
| 20260503170950 | 69 | 140 | 2.6 | 10.4 | 0.00 | 0.00 | 0.00 | 75 | 1010.6 |
| 20260503170528 | 70 | 182 | 4.3 | 7.0 | 0.00 | 0.00 | 0.00 | 73 | 1010.6 |
| 20260503160143 | 69 | 165 | 2.6 | 7.8 | 0.00 | 0.00 | 0.00 | 81 | 1010.9 |
| 20260503150713 | 66 | 114 | 6.1 | 14.8 | 0.00 | 0.00 | 0.00 | 85 | 1011.5 |
| 20260503150253 | 66 | 184 | 5.2 | 14.8 | 0.00 | 0.00 | 0.00 | 85 | 1011.7 |
| 20260503131353 | 68 | 137 | 12.2 | 14.8 | 0.00 | 0.00 | 0.00 | 81 | 1012.5 |
| 20260503130918 | 68 | 220 | 5.2 | 11.3 | 0.00 | 0.00 | 0.00 | 82 | 1012.8 |
| 20260503130428 | 68 | 167 | 3.5 | 9.6 | 0.00 | 0.00 | 0.00 | 81 | 1012.9 |
| 20260503110618 | 68 | 162 | 6.1 | 8.7 | 0.00 | 0.00 | 0.00 | 83 | 1013.8 |
| 20260503110153 | 68 | 187 | 5.2 | 12.2 | 0.00 | 0.00 | 0.00 | 83 | 1013.8 |
| 20260503090408 | 67 | 156 | 7.8 | 11.3 | 0.00 | 0.00 | 0.00 | 80 | 1013.8 |
| 20260503081513 | 66 | 108 | 1.7 | 9.6 | 0.00 | 0.00 | 0.00 | 82 | 1013.7 |
| 20260503081038 | 66 | 138 | 2.6 | 5.2 | 0.00 | 0.00 | 0.00 | 82 | 1013.8 |
| 20260503080638 | 66 | 154 | 5.2 | 7.0 | 0.00 | 0.00 | 0.00 | 81 | 1013.7 |
| 20260503080148 | 67 | 130 | 3.5 | 5.2 | 0.00 | 0.00 | 0.00 | 81 | 1013.7 |
| 20260503072543 | 66 | 135 | 0.9 | 2.6 | 0.00 | 0.00 | 0.00 | 82 | 1013.4 |
| 20260503072053 | 66 | 106 | 0.9 | 3.5 | 0.00 | 0.00 | 0.00 | 82 | 1013.7 |
| 20260503071603 | 66 | 97 | 1.7 | 3.5 | 0.00 | 0.00 | 0.00 | 82 | 1013.6 |
| 20260503071108 | 66 | 123 | 0.0 | 2.6 | 0.00 | 0.00 | 0.00 | 82 | 1013.7 |
| 20260503070633 | 66 | 107 | 0.0 | 1.7 | 0.00 | 0.00 | 0.00 | 82 | 1013.4 |
| 20260503070220 | 66 | 124 | 0.9 | 2.6 | 0.00 | 0.00 | 0.00 | 82 | 1013.3 |
| 20260503054748 | 65 | 99 | 0.0 | 0.0 | 0.00 | 0.00 | 0.00 | 84 | 1012.9 |
| 20260503054318 | 65 | 86 | 0.0 | 0.0 | 0.00 | 0.00 | 0.00 | 84 | 1012.6 |
| 20260503053833 | 65 | 100 | 0.0 | 0.0 | 0.00 | 0.00 | 0.00 | 84 | 1012.8 |
| 20260503053423 | 65 | 113 | 0.0 | 0.9 | 0.00 | 0.00 | 0.00 | 84 | 1012.8 |
| 20260503052938 | 65 | 128 | 0.0 | 0.9 | 0.00 | 0.00 | 0.00 | 84 | 1012.8 |
| 20260503052529 | 65 | 115 | 0.0 | 0.9 | 0.00 | 0.00 | 0.00 | 84 | 1012.8 |
| 20260503052041 | 65 | 117 | 0.0 | 0.9 | 0.00 | 0.00 | 0.00 | 84 | 1012.6 |
| 20260503051618 | 65 | 117 | 0.0 | 0.0 | 0.00 | 0.00 | 0.00 | 84 | 1012.6 |
| 20260503050733 | 65 | 108 | 0.0 | 1.7 | 0.00 | 0.00 | 0.00 | 85 | 1012.9 |
| 20260503050303 | 65 | 150 | 0.9 | 2.6 | 0.00 | 0.00 | 0.00 | 85 | 1012.8 |
| 20260503045831 | 65 | 107 | 0.0 | 2.6 | 0.00 | 0.00 | 0.00 | 85 | 1012.8 |
| 20260503045343 | 65 | 174 | 1.7 | 2.6 | 0.00 | 0.00 | 0.00 | 85 | 1012.6 |
| 20260503044938 | 65 | 121 | 0.9 | 1.7 | 0.00 | 0.00 | 0.00 | 84 | 1012.6 |
| 20260503044503 | 64 | 174 | 1.7 | 2.6 | 0.00 | 0.00 | 0.00 | 84 | 1012.6 |
| 20260503044043 | 64 | 104 | 0.0 | 1.7 | 0.00 | 0.00 | 0.00 | 85 | 1012.5 |
| 20260503043628 | 64 | 99 | 0.0 | 0.0 | 0.00 | 0.00 | 0.00 | 85 | 1012.6 |
| 20260503043148 | 65 | 106 | 0.0 | 0.0 | 0.00 | 0.00 | 0.00 | 85 | 1012.5 |
| 20260503042653 | 65 | 116 | 0.0 | 0.0 | 0.00 | 0.00 | 0.00 | 84 | 1012.6 |
| 20260503042153 | 65 | 100 | 0.0 | 0.0 | 0.00 | 0.00 | 0.00 | 84 | 1012.6 |
| 20260503041658 | 65 | 114 | 0.0 | 0.0 | 0.00 | 0.00 | 0.00 | 84 | 1012.9 |
| 20260503041258 | 65 | 109 | 0.0 | 0.0 | 0.00 | 0.00 | 0.00 | 84 | 1012.6 |
| 20260503040808 | 65 | 97 | 0.0 | 0.0 | 0.00 | 0.00 | 0.00 | 83 | 1012.8 |
| 20260503040343 | 65 | 98 | 0.0 | 0.0 | 0.00 | 0.00 | 0.00 | 83 | 1012.9 |
| 20260503035853 | 65 | 68 | 0.9 | 0.9 | 0.00 | 0.00 | 0.00 | 83 | 1012.9 |
| 20260503035414 | 65 | 70 | 0.9 | 1.7 | 0.00 | 0.00 | 0.00 | 84 | 1013.0 |
| 20260503034953 | 65 | 89 | 0.0 | 0.0 | 0.00 | 0.00 | 0.00 | 84 | 1013.1 |
| 20260503034523 | 65 | 97 | 0.0 | 0.0 | 0.00 | 0.00 | 0.00 | 84 | 1013.1 |
| 20260503034118 | 65 | 95 | 0.0 | 0.9 | 0.00 | 0.00 | 0.00 | 84 | 1013.0 |
| 20260503033652 | 65 | 16 | 1.7 | 2.6 | 0.00 | 0.00 | 0.00 | 84 | 1012.9 |
| 20260503033221 | 65 | 84 | 0.9 | 1.7 | 0.00 | 0.00 | 0.00 | 84 | 1013.1 |
| 20260503032728 | 65 | 27 | 0.0 | 1.7 | 0.00 | 0.00 | 0.00 | 85 | 1013.2 |
| 20260503032305 | 65 | 99 | 0.0 | 0.0 | 0.00 | 0.00 | 0.00 | 85 | 1013.3 |
| 20260503031823 | 65 | 90 | 0.9 | 1.7 | 0.00 | 0.00 | 0.00 | 85 | 1013.4 |
| 20260503031403 | 65 | 96 | 0.0 | 0.0 | 0.00 | 0.00 | 0.00 | 85 | 1013.3 |
| 20260503030910 | 65 | 61 | 0.9 | 1.7 | 0.00 | 0.00 | 0.00 | 85 | 1013.2 |
| 20260503030423 | 65 | 92 | 0.0 | 1.7 | 0.00 | 0.00 | 0.00 | 85 | 1013.2 |
| 20260503025953 | 65 | 71 | 0.0 | 0.0 | 0.00 | 0.00 | 0.00 | 85 | 1013.3 |
| 20260503025518 | 65 | 93 | 0.0 | 0.9 | 0.00 | 0.00 | 0.00 | 85 | 1013.3 |
| 20260503025048 | 65 | 27 | 1.7 | 2.6 | 0.00 | 0.00 | 0.00 | 86 | 1013.2 |
| 20260503024633 | 65 | 90 | 0.0 | 0.0 | 0.00 | 0.00 | 0.00 | 86 | 1013.2 |